| time (UTC) | temp F | wind direction | speed MPH | gust MPH | rain 1hr in | rain 24hr in | rain mn in | humidity % | barometer mb |
| 20260506134733 | 55 | 243 | 6.0 | 17.0 | 0.00 | 0.00 | 0.00 | 56 | 1016.5 |
| 20260506134234 | 55 | 254 | 8.0 | 17.0 | 0.00 | 0.00 | 0.00 | 56 | 1016.3 |
| 20260506133733 | 54 | 265 | 11.0 | 17.0 | 0.00 | 0.00 | 0.00 | 56 | 1016.3 |
| 20260506133238 | 53 | 222 | 8.0 | 16.0 | 0.00 | 0.00 | 0.00 | 57 | 1015.9 |
| 20260506133232 | 54 | 235 | 10.0 | 17.0 | 0.00 | 0.00 | 0.00 | 56 | 1016.0 |
| 20260506132231 | 53 | 244 | 7.0 | 13.0 | 0.00 | 0.00 | 0.00 | 57 | 1015.9 |
| 20260506131730 | 53 | 275 | 8.0 | 13.0 | 0.00 | 0.00 | 0.00 | 57 | 1015.9 |
| 20260506131235 | 53 | 246 | 8.0 | 12.0 | 0.00 | 0.00 | 0.00 | 57 | 1015.7 |
| 20260506131231 | 53 | 240 | 8.0 | 13.0 | 0.00 | 0.00 | 0.00 | 57 | 1015.9 |
| 20260506130230 | 53 | 238 | 8.0 | 15.0 | 0.00 | 0.00 | 0.00 | 57 | 1015.7 |
| 20260506125731 | 54 | 251 | 9.0 | 15.0 | 0.00 | 0.00 | 0.00 | 56 | 1015.7 |
| 20260506125230 | 54 | 241 | 11.0 | 15.0 | 0.00 | 0.00 | 0.00 | 56 | 1015.6 |
| 20260506124732 | 54 | 259 | 11.0 | 15.0 | 0.00 | 0.00 | 0.00 | 56 | 1015.5 |
| 20260506124234 | 54 | 223 | 11.0 | 17.0 | 0.00 | 0.00 | 0.00 | 57 | 1015.2 |
| 20260506124230 | 53 | 233 | 10.0 | 17.0 | 0.00 | 0.00 | 0.00 | 57 | 1015.3 |
| 20260506123231 | 53 | 222 | 12.0 | 17.0 | 0.00 | 0.00 | 0.00 | 57 | 1015.2 |
| 20260506122730 | 53 | 226 | 10.0 | 17.0 | 0.00 | 0.00 | 0.00 | 57 | 1015.1 |
| 20260506122234 | 54 | 217 | 10.0 | 16.0 | 0.00 | 0.00 | 0.00 | 57 | 1015.2 |
| 20260506122230 | 53 | 216 | 10.0 | 16.0 | 0.00 | 0.00 | 0.00 | 57 | 1015.0 |
| 20260506121230 | 54 | 222 | 11.0 | 18.0 | 0.00 | 0.00 | 0.00 | 57 | 1015.2 |
| 20260506120730 | 54 | 211 | 12.0 | 18.0 | 0.00 | 0.00 | 0.00 | 56 | 1015.1 |
| 20260506120235 | 54 | 229 | 13.0 | 18.0 | 0.00 | 0.00 | 0.00 | 58 | 1014.9 |
| 20260506120230 | 54 | 237 | 12.0 | 18.0 | 0.00 | 0.00 | 0.00 | 57 | 1015.0 |
| 20260506115230 | 54 | 220 | 13.0 | 19.0 | 0.00 | 0.00 | 0.00 | 58 | 1015.0 |
| 20260506114730 | 54 | 233 | 13.0 | 19.0 | 0.00 | 0.00 | 0.00 | 58 | 1015.0 |
| 20260506114230 | 54 | 219 | 14.0 | 19.0 | 0.00 | 0.00 | 0.00 | 58 | 1014.9 |
| 20260506113730 | 54 | 258 | 13.0 | 19.0 | 0.00 | 0.00 | 0.00 | 58 | 1014.9 |
| 20260506113231 | 54 | 226 | 13.0 | 19.0 | 0.00 | 0.00 | 0.00 | 59 | 1014.9 |
| 20260506112729 | 54 | 225 | 13.0 | 19.0 | 0.00 | 0.00 | 0.00 | 58 | 1014.9 |
| 20260506112230 | 54 | 212 | 12.0 | 18.0 | 0.00 | 0.00 | 0.00 | 57 | 1014.8 |
| 20260506111730 | 54 | 212 | 11.0 | 18.0 | 0.00 | 0.00 | 0.00 | 57 | 1014.9 |
| 20260506111230 | 54 | 239 | 12.0 | 17.0 | 0.00 | 0.00 | 0.00 | 57 | 1014.8 |
| 20260506110729 | 54 | 215 | 13.0 | 17.0 | 0.00 | 0.00 | 0.00 | 57 | 1014.8 |
| 20260506110230 | 54 | 228 | 12.0 | 18.0 | 0.00 | 0.00 | 0.00 | 56 | 1014.8 |
| 20260506105731 | 55 | 225 | 12.0 | 18.0 | 0.00 | 0.00 | 0.00 | 56 | 1014.8 |
| 20260506105229 | 54 | 221 | 12.0 | 19.0 | 0.00 | 0.00 | 0.00 | 56 | 1014.8 |
| 20260506104735 | 54 | 212 | 12.0 | 19.0 | 0.00 | 0.00 | 0.00 | 57 | 1014.7 |
| 20260506104731 | 54 | 207 | 12.0 | 19.0 | 0.00 | 0.00 | 0.00 | 56 | 1014.7 |
| 20260506103733 | 54 | 222 | 11.0 | 19.0 | 0.00 | 0.00 | 0.00 | 57 | 1014.6 |
| 20260506103729 | 54 | 225 | 12.0 | 19.0 | 0.00 | 0.00 | 0.00 | 57 | 1014.6 |
| 20260506102729 | 54 | 200 | 10.0 | 18.0 | 0.00 | 0.00 | 0.00 | 57 | 1014.6 |
| 20260506102230 | 54 | 234 | 9.0 | 15.0 | 0.00 | 0.00 | 0.00 | 57 | 1014.7 |
| 20260506101735 | 54 | 217 | 6.0 | 11.0 | 0.00 | 0.00 | 0.00 | 56 | 1014.7 |
| 20260506101729 | 54 | 213 | 7.0 | 12.0 | 0.00 | 0.00 | 0.00 | 57 | 1014.6 |
| 20260506100731 | 55 | 196 | 6.0 | 11.0 | 0.00 | 0.00 | 0.00 | 56 | 1014.7 |
| 20260506100229 | 55 | 232 | 7.0 | 13.0 | 0.00 | 0.00 | 0.00 | 56 | 1014.7 |
| 20260506095729 | 55 | 186 | 7.0 | 13.0 | 0.00 | 0.00 | 0.00 | 56 | 1014.6 |
| 20260506095227 | 55 | 203 | 7.0 | 12.0 | 0.00 | 0.00 | 0.00 | 56 | 1014.6 |
| 20260506094727 | 55 | 204 | 8.0 | 16.0 | 0.00 | 0.00 | 0.00 | 56 | 1014.5 |
| 20260506094227 | 55 | 220 | 8.0 | 16.0 | 0.00 | 0.00 | 0.00 | 56 | 1014.4 |
| 20260506093729 | 55 | 232 | 7.0 | 15.0 | 0.00 | 0.00 | 0.00 | 56 | 1014.4 |
| 20260506093228 | 55 | 227 | 8.0 | 15.0 | 0.00 | 0.00 | 0.00 | 56 | 1014.4 |
| 20260506092729 | 55 | 183 | 9.0 | 15.0 | 0.00 | 0.00 | 0.00 | 56 | 1014.4 |
| 20260506092229 | 55 | 228 | 9.0 | 15.0 | 0.00 | 0.00 | 0.00 | 56 | 1014.4 |
| 20260506091727 | 55 | 213 | 10.0 | 15.0 | 0.00 | 0.00 | 0.00 | 56 | 1014.3 |
| 20260506091229 | 55 | 218 | 9.0 | 14.0 | 0.00 | 0.00 | 0.00 | 57 | 1014.3 |
| 20260506090729 | 55 | 215 | 9.0 | 14.0 | 0.00 | 0.00 | 0.00 | 57 | 1014.4 |
| 20260506090231 | 55 | 203 | 11.0 | 15.0 | 0.00 | 0.00 | 0.00 | 57 | 1014.4 |
| 20260506090227 | 55 | 226 | 10.0 | 14.0 | 0.00 | 0.00 | 0.00 | 57 | 1014.4 |
| 20260506085227 | 55 | 221 | 11.0 | 16.0 | 0.00 | 0.00 | 0.00 | 57 | 1014.4 |
| 20260506084728 | 55 | 194 | 12.0 | 17.0 | 0.00 | 0.00 | 0.00 | 56 | 1014.4 |
| 20260506084228 | 55 | 232 | 12.0 | 17.0 | 0.00 | 0.00 | 0.00 | 56 | 1014.4 |
| 20260506083728 | 55 | 231 | 12.0 | 18.0 | 0.00 | 0.00 | 0.00 | 56 | 1014.4 |
| 20260506083227 | 55 | 227 | 12.0 | 18.0 | 0.00 | 0.00 | 0.00 | 55 | 1014.5 |
| 20260506082731 | 56 | 245 | 11.0 | 18.0 | 0.00 | 0.00 | 0.00 | 55 | 1014.4 |
| 20260506082727 | 56 | 245 | 12.0 | 18.0 | 0.00 | 0.00 | 0.00 | 55 | 1014.4 |
| 20260506081733 | 56 | 225 | 11.0 | 19.0 | 0.00 | 0.00 | 0.00 | 54 | 1014.4 |
| 20260506081729 | 56 | 217 | 10.0 | 19.0 | 0.00 | 0.00 | 0.00 | 54 | 1014.4 |
| 20260506080729 | 56 | 212 | 12.0 | 21.0 | 0.00 | 0.00 | 0.00 | 53 | 1014.5 |
| 20260506080227 | 56 | 213 | 13.0 | 21.0 | 0.00 | 0.00 | 0.00 | 53 | 1014.4 |
| 20260506072725 | 57 | 230 | 13.0 | 21.0 | 0.00 | 0.00 | 0.00 | 52 | 1014.2 |
| 20260506072225 | 57 | 199 | 13.0 | 21.0 | 0.00 | 0.00 | 0.00 | 52 | 1014.1 |
| 20260506071727 | 57 | 223 | 14.0 | 21.0 | 0.00 | 0.00 | 0.00 | 52 | 1013.9 |
| 20260506071722 | 57 | 211 | 14.0 | 21.0 | 0.00 | 0.00 | 0.00 | 52 | 1013.8 |
| 20260506071335 | 57 | 207 | 14.0 | 21.0 | 0.00 | 0.00 | 0.00 | 52 | 1013.7 |
| 20260506070222 | 57 | 217 | 13.0 | 20.0 | 0.00 | 0.00 | 0.00 | 52 | 1013.7 |
| 20260506062222 | 57 | 209 | 14.0 | 20.0 | 0.00 | 0.00 | 0.00 | 54 | 1013.4 |
| 20260506061723 | 57 | 211 | 14.0 | 20.0 | 0.00 | 0.00 | 0.00 | 54 | 1013.2 |
| 20260506061217 | 57 | 227 | 14.0 | 23.0 | 0.00 | 0.00 | 0.00 | 53 | 1013.1 |
| 20260506060718 | 57 | 254 | 14.0 | 23.0 | 0.00 | 0.00 | 0.00 | 54 | 1013.0 |
| 20260506060223 | 57 | 230 | 14.0 | 23.0 | 0.00 | 0.00 | 0.00 | 53 | 1012.9 |
| 20260506060217 | 57 | 225 | 14.0 | 23.0 | 0.00 | 0.00 | 0.00 | 53 | 1012.9 |
| 20260506051215 | 58 | 198 | 14.0 | 21.0 | 0.00 | 0.00 | 0.00 | 51 | 1012.8 |
| 20260506050716 | 58 | 192 | 13.0 | 21.0 | 0.00 | 0.00 | 0.00 | 50 | 1012.7 |
| 20260506050215 | 59 | 203 | 14.0 | 22.0 | 0.00 | 0.00 | 0.00 | 50 | 1012.5 |
| 20260506044713 | 59 | 209 | 13.0 | 22.0 | 0.00 | 0.00 | 0.00 | 49 | 1012.5 |
| 20260506044213 | 59 | 211 | 12.0 | 19.0 | 0.00 | 0.00 | 0.00 | 49 | 1012.3 |
| 20260506043713 | 59 | 232 | 12.0 | 20.0 | 0.00 | 0.00 | 0.00 | 49 | 1012.3 |
| 20260506043213 | 59 | 194 | 13.0 | 20.0 | 0.00 | 0.00 | 0.00 | 49 | 1012.2 |
| 20260506042713 | 59 | 221 | 14.0 | 21.0 | 0.00 | 0.00 | 0.00 | 49 | 1012.1 |
| 20260506042213 | 59 | 216 | 14.0 | 21.0 | 0.00 | 0.00 | 0.00 | 49 | 1012.1 |
| 20260506041713 | 59 | 184 | 13.0 | 22.0 | 0.00 | 0.00 | 0.00 | 48 | 1012.0 |
| 20260506041213 | 60 | 240 | 14.0 | 22.0 | 0.00 | 0.00 | 0.00 | 48 | 1011.9 |
| 20260506040713 | 60 | 221 | 15.0 | 22.0 | 0.00 | 0.00 | 0.00 | 48 | 1011.9 |
| 20260506040212 | 60 | 213 | 14.0 | 22.0 | 0.00 | 0.00 | 0.00 | 48 | 1011.8 |
| 20260506035713 | 60 | 213 | 14.0 | 20.0 | 0.00 | 0.00 | 0.00 | 47 | 1011.7 |
| 20260506035213 | 60 | 207 | 15.0 | 21.0 | 0.00 | 0.00 | 0.00 | 47 | 1011.6 |
| 20260506034713 | 61 | 220 | 14.0 | 21.0 | 0.00 | 0.00 | 0.00 | 46 | 1011.5 |
| 20260506034218 | 61 | 221 | 14.0 | 20.0 | 0.00 | 0.00 | 0.00 | 45 | 1011.5 |
| 20260506034214 | 61 | 200 | 13.0 | 21.0 | 0.00 | 0.00 | 0.00 | 45 | 1011.5 |
| 20260506033213 | 62 | 229 | 13.0 | 21.0 | 0.00 | 0.00 | 0.00 | 44 | 1011.3 |
| 20260506032713 | 62 | 216 | 12.0 | 21.0 | 0.00 | 0.00 | 0.00 | 44 | 1011.3 |
| 20260506032218 | 63 | 212 | 13.0 | 21.0 | 0.00 | 0.00 | 0.00 | 43 | 1011.0 |
| 20260506032212 | 62 | 198 | 13.0 | 21.0 | 0.00 | 0.00 | 0.00 | 44 | 1011.0 |
| 20260506031213 | 63 | 224 | 13.0 | 20.0 | 0.00 | 0.00 | 0.00 | 42 | 1010.9 |
| 20260506030713 | 64 | 207 | 14.0 | 20.0 | 0.00 | 0.00 | 0.00 | 42 | 1010.7 |
| 20260506030213 | 64 | 225 | 13.0 | 20.0 | 0.00 | 0.00 | 0.00 | 41 | 1010.7 |
| 20260506025713 | 64 | 222 | 13.0 | 20.0 | 0.00 | 0.00 | 0.00 | 41 | 1010.6 |
| 20260506025214 | 65 | 220 | 12.0 | 20.0 | 0.00 | 0.00 | 0.00 | 40 | 1010.5 |
| 20260506024712 | 65 | 230 | 13.0 | 20.0 | 0.00 | 0.00 | 0.00 | 39 | 1010.6 |
| 20260506024212 | 65 | 217 | 13.0 | 18.0 | 0.00 | 0.00 | 0.00 | 39 | 1010.4 |
| 20260506023712 | 66 | 223 | 13.0 | 18.0 | 0.00 | 0.00 | 0.00 | 38 | 1010.4 |
| 20260506023211 | 67 | 226 | 13.0 | 18.0 | 0.00 | 0.00 | 0.00 | 36 | 1010.3 |
| 20260506022711 | 67 | 234 | 12.0 | 17.0 | 0.00 | 0.00 | 0.00 | 35 | 1010.3 |
| 20260506022211 | 68 | 231 | 12.0 | 16.0 | 0.00 | 0.00 | 0.00 | 35 | 1010.2 |
| 20260506021711 | 68 | 246 | 12.0 | 16.0 | 0.00 | 0.00 | 0.00 | 34 | 1010.1 |
| 20260506021215 | 69 | 237 | 11.0 | 16.0 | 0.00 | 0.00 | 0.00 | 33 | 1010.1 |
| 20260506021211 | 68 | 238 | 11.0 | 16.0 | 0.00 | 0.00 | 0.00 | 33 | 1010.2 |
| 20260506020826 | 69 | 247 | 12.0 | 17.0 | 0.00 | 0.00 | 0.00 | 33 | 1010.1 |
| 20260506015711 | 70 | 241 | 11.0 | 17.0 | 0.00 | 0.00 | 0.00 | 32 | 1010.0 |
| 20260506015212 | 70 | 230 | 8.0 | 17.0 | 0.00 | 0.00 | 0.00 | 32 | 1009.9 |
| 20260506014710 | 70 | 237 | 10.0 | 19.0 | 0.00 | 0.00 | 0.00 | 31 | 1009.6 |
| 20260506014215 | 71 | 157 | 11.0 | 16.0 | 0.00 | 0.00 | 0.00 | 32 | 1009.5 |
| 20260506014211 | 70 | 126 | 13.0 | 19.0 | 0.00 | 0.00 | 0.00 | 33 | 1009.5 |
| 20260506013212 | 71 | 142 | 8.0 | 15.0 | 0.00 | 0.00 | 0.00 | 32 | 1009.6 |
| 20260506012712 | 71 | 144 | 8.0 | 12.0 | 0.00 | 0.00 | 0.00 | 31 | 1009.5 |
| 20260506012212 | 72 | 138 | 8.0 | 13.0 | 0.00 | 0.00 | 0.00 | 31 | 1009.5 |
| 20260506011711 | 72 | 174 | 8.0 | 13.0 | 0.00 | 0.00 | 0.00 | 30 | 1009.5 |
| 20260506011212 | 72 | 150 | 7.0 | 12.0 | 0.00 | 0.00 | 0.00 | 30 | 1009.5 |
| 20260506010716 | 72 | 184 | 6.0 | 14.0 | 0.00 | 0.00 | 0.00 | 29 | 1009.5 |
| 20260506010711 | 72 | 221 | 5.0 | 11.0 | 0.00 | 0.00 | 0.00 | 31 | 1009.5 |
| 20260506005712 | 72 | 184 | 5.0 | 14.0 | 0.00 | 0.00 | 0.00 | 29 | 1009.5 |
| 20260506005212 | 72 | 205 | 1.0 | 11.0 | 0.00 | 0.00 | 0.00 | 29 | 1009.4 |
| 20260506004710 | 72 | 300 | 3.0 | 11.0 | 0.00 | 0.00 | 0.00 | 29 | 1009.3 |
| 20260506004210 | 72 | 290 | 6.0 | 11.0 | 0.00 | 0.00 | 0.00 | 29 | 1009.3 |
| 20260506003710 | 72 | 290 | 6.0 | 11.0 | 0.00 | 0.00 | 0.00 | 29 | 1009.2 |
| 20260506003210 | 72 | 58 | 3.0 | 14.0 | 0.00 | 0.00 | 0.00 | 30 | 1009.2 |
| 20260506002711 | 72 | 168 | 2.0 | 14.0 | 0.00 | 0.00 | 0.00 | 31 | 1009.2 |
| 20260506002211 | 72 | 144 | 5.0 | 14.0 | 0.00 | 0.00 | 0.00 | 31 | 1009.2 |
| 20260506001712 | 72 | 264 | 7.0 | 14.0 | 0.00 | 0.00 | 0.00 | 31 | 1009.2 |
| 20260506001210 | 72 | 13 | 5.0 | 10.0 | 0.00 | 0.00 | 0.00 | 29 | 1009.1 |
| 20260506000715 | 73 | 314 | 4.0 | 10.0 | 0.00 | 0.00 | 0.00 | 29 | 1009.2 |
| 20260506000711 | 72 | 338 | 5.0 | 10.0 | 0.00 | 0.00 | 0.00 | 29 | 1009.3 |
| 20260505235710 | 73 | 353 | 5.0 | 13.0 | 0.00 | 0.00 | 0.00 | 29 | 1009.3 |
| 20260505235211 | 72 | 358 | 5.0 | 13.0 | 0.00 | 0.00 | 0.00 | 29 | 1009.2 |
| 20260505234710 | 72 | 22 | 2.0 | 10.0 | 0.00 | 0.00 | 0.00 | 30 | 1009.1 |
| 20260505234210 | 72 | 353 | 2.0 | 15.0 | 0.00 | 0.00 | 0.00 | 30 | 1009.2 |
| 20260505233710 | 73 | 340 | 5.0 | 15.0 | 0.00 | 0.00 | 0.00 | 29 | 1009.2 |
| 20260505233216 | 74 | 353 | 6.0 | 17.0 | 0.00 | 0.00 | 0.00 | 28 | 1009.3 |
| 20260505233211 | 73 | 15 | 6.0 | 17.0 | 0.00 | 0.00 | 0.00 | 29 | 1009.3 |
| 20260505232209 | 74 | 24 | 5.0 | 11.0 | 0.00 | 0.00 | 0.00 | 29 | 1009.3 |
| 20260505231709 | 74 | 78 | 3.0 | 10.0 | 0.00 | 0.00 | 0.00 | 29 | 1009.3 |
| 20260505231209 | 74 | 13 | 4.0 | 12.0 | 0.00 | 0.00 | 0.00 | 29 | 1009.3 |
| 20260505230708 | 74 | 236 | 5.0 | 12.0 | 0.00 | 0.00 | 0.00 | 29 | 1009.2 |
| 20260505230212 | 72 | 170 | 1.0 | 7.0 | 0.00 | 0.00 | 0.00 | 29 | 1009.4 |
| 20260505230208 | 73 | 135 | 3.0 | 8.0 | 0.00 | 0.00 | 0.00 | 30 | 1009.3 |
| 20260505225210 | 72 | 210 | 0.0 | 11.0 | 0.00 | 0.00 | 0.00 | 29 | 1009.4 |
| 20260505224714 | 72 | 234 | 6.0 | 14.0 | 0.00 | 0.00 | 0.00 | 29 | 1009.5 |
| 20260505224710 | 72 | 165 | 3.0 | 11.0 | 0.00 | 0.00 | 0.00 | 29 | 1009.5 |
| 20260505223707 | 72 | 182 | 7.0 | 14.0 | 0.00 | 0.00 | 0.00 | 29 | 1009.6 |
| 20260505223207 | 72 | 126 | 5.0 | 12.0 | 0.00 | 0.00 | 0.00 | 30 | 1009.6 |
| 20260505222707 | 72 | 147 | 4.0 | 9.0 | 0.00 | 0.00 | 0.00 | 30 | 1009.6 |
| 20260505222210 | 72 | 50 | 3.0 | 9.0 | 0.00 | 0.00 | 0.00 | 28 | 1009.7 |
| 20260505222205 | 71 | 78 | 3.0 | 9.0 | 0.00 | 0.00 | 0.00 | 28 | 1009.7 |
| 20260505221202 | 72 | 64 | 4.0 | 9.0 | 0.00 | 0.00 | 0.00 | 28 | 1009.9 |
| 20260505220702 | 73 | 86 | 3.0 | 9.0 | 0.00 | 0.00 | 0.00 | 28 | 1010.0 |
| 20260505220203 | 73 | 111 | 4.0 | 9.0 | 0.00 | 0.00 | 0.00 | 28 | 1010.0 |
| 20260505215703 | 73 | 78 | 5.0 | 9.0 | 0.00 | 0.00 | 0.00 | 27 | 1010.1 |
| 20260505215202 | 74 | 92 | 4.0 | 9.0 | 0.00 | 0.00 | 0.00 | 27 | 1010.1 |
| 20260505214702 | 75 | 61 | 2.0 | 9.0 | 0.00 | 0.00 | 0.00 | 26 | 1010.2 |
| 20260505214206 | 76 | 146 | 3.0 | 9.0 | 0.00 | 0.00 | 0.00 | 26 | 1010.1 |
| 20260505214202 | 76 | 34 | 2.0 | 9.0 | 0.00 | 0.00 | 0.00 | 26 | 1010.2 |
| 20260505213201 | 75 | 257 | 3.0 | 9.0 | 0.00 | 0.00 | 0.00 | 27 | 1010.2 |
| 20260505212705 | 75 | 182 | 3.0 | 9.0 | 0.00 | 0.00 | 0.00 | 27 | 1010.2 |
| 20260505212700 | 75 | 120 | 4.0 | 9.0 | 0.00 | 0.00 | 0.00 | 27 | 1010.2 |
| 20260505211700 | 74 | 195 | 3.0 | 8.0 | 0.00 | 0.00 | 0.00 | 27 | 1010.2 |
| 20260505211201 | 74 | 76 | 4.0 | 8.0 | 0.00 | 0.00 | 0.00 | 28 | 1010.2 |
| 20260505210700 | 73 | 173 | 4.0 | 9.0 | 0.00 | 0.00 | 0.00 | 29 | 1010.2 |
| 20260505210200 | 72 | 122 | 5.0 | 10.0 | 0.00 | 0.00 | 0.00 | 29 | 1010.2 |
| 20260505205658 | 72 | 49 | 5.0 | 10.0 | 0.00 | 0.00 | 0.00 | 29 | 1010.2 |
| 20260505205158 | 72 | 61 | 5.0 | 10.0 | 0.00 | 0.00 | 0.00 | 29 | 1010.2 |
| 20260505204658 | 72 | 103 | 4.0 | 10.0 | 0.00 | 0.00 | 0.00 | 28 | 1010.3 |
| 20260505204159 | 73 | 72 | 3.0 | 10.0 | 0.00 | 0.00 | 0.00 | 29 | 1010.3 |
| 20260505203657 | 73 | 53 | 4.0 | 8.0 | 0.00 | 0.00 | 0.00 | 29 | 1010.2 |
| 20260505203156 | 73 | 26 | 4.0 | 9.0 | 0.00 | 0.00 | 0.00 | 28 | 1010.3 |
| 20260505202657 | 74 | 149 | 3.0 | 9.0 | 0.00 | 0.00 | 0.00 | 28 | 1010.3 |
| 20260505202156 | 74 | 49 | 4.0 | 12.0 | 0.00 | 0.00 | 0.00 | 27 | 1010.3 |
| 20260505202152 | 75 | 142 | 6.0 | 14.0 | 0.00 | 0.00 | 0.00 | 27 | 1010.4 |
| 20260505201152 | 75 | 189 | 5.0 | 14.0 | 0.00 | 0.00 | 0.00 | 28 | 1010.3 |
| 20260505200651 | 73 | 230 | 4.0 | 9.0 | 0.00 | 0.00 | 0.00 | 29 | 1010.4 |
| 20260505200157 | 71 | 231 | 3.0 | 11.0 | 0.00 | 0.00 | 0.00 | 30 | 1010.5 |
| 20260505200153 | 72 | 291 | 3.0 | 8.0 | 0.00 | 0.00 | 0.00 | 30 | 1010.4 |
| 20260505195148 | 71 | 26 | 3.0 | 11.0 | 0.00 | 0.00 | 0.00 | 30 | 1010.5 |
| 20260505194646 | 71 | 51 | 4.0 | 11.0 | 0.00 | 0.00 | 0.00 | 30 | 1010.6 |
| 20260505194146 | 71 | 155 | 5.0 | 11.0 | 0.00 | 0.00 | 0.00 | 31 | 1010.7 |
| 20260505193646 | 70 | 97 | 4.0 | 10.0 | 0.00 | 0.00 | 0.00 | 31 | 1010.8 |
| 20260505193151 | 71 | 38 | 5.0 | 14.0 | 0.00 | 0.00 | 0.00 | 31 | 1010.8 |
| 20260505193146 | 71 | 338 | 5.0 | 14.0 | 0.00 | 0.00 | 0.00 | 32 | 1010.7 |
| 20260505192146 | 71 | 318 | 5.0 | 14.0 | 0.00 | 0.00 | 0.00 | 31 | 1010.9 |
| 20260505191646 | 70 | 308 | 5.0 | 14.0 | 0.00 | 0.00 | 0.00 | 31 | 1011.1 |
| 20260505191146 | 70 | 34 | 4.0 | 14.0 | 0.00 | 0.00 | 0.00 | 32 | 1010.9 |
| 20260505190645 | 70 | 126 | 4.0 | 14.0 | 0.00 | 0.00 | 0.00 | 32 | 1010.9 |
| 20260505190151 | 70 | 13 | 6.0 | 14.0 | 0.00 | 0.00 | 0.00 | 31 | 1010.9 |
| 20260505190146 | 70 | 117 | 6.0 | 14.0 | 0.00 | 0.00 | 0.00 | 32 | 1010.9 |
| 20260505185758 | 72 | 53 | 4.0 | 12.0 | 0.00 | 0.00 | 0.00 | 29 | 1010.9 |
| 20260505184643 | 72 | 242 | 3.0 | 6.0 | 0.00 | 0.00 | 0.00 | 29 | 1011.0 |
| 20260505184144 | 72 | 292 | 3.0 | 6.0 | 0.00 | 0.00 | 0.00 | 29 | 1011.0 |
| 20260505183643 | 72 | 346 | 3.0 | 7.0 | 0.00 | 0.00 | 0.00 | 29 | 1011.0 |
| 20260505183144 | 72 | 258 | 4.0 | 7.0 | 0.00 | 0.00 | 0.00 | 29 | 1010.9 |
| 20260505182643 | 71 | 259 | 3.0 | 7.0 | 0.00 | 0.00 | 0.00 | 30 | 1011.0 |
| 20260505182143 | 71 | 273 | 4.0 | 8.0 | 0.00 | 0.00 | 0.00 | 30 | 1010.9 |
| 20260505181644 | 70 | 164 | 4.0 | 8.0 | 0.00 | 0.00 | 0.00 | 31 | 1011.0 |
| 20260505181145 | 68 | 199 | 3.0 | 8.0 | 0.00 | 0.00 | 0.00 | 32 | 1011.0 |
| 20260505180649 | 67 | 344 | 3.0 | 8.0 | 0.00 | 0.00 | 0.00 | 34 | 1011.0 |
| 20260505180645 | 67 | 54 | 3.0 | 8.0 | 0.00 | 0.00 | 0.00 | 33 | 1011.0 |
| 20260505175645 | 66 | 124 | 3.0 | 8.0 | 0.00 | 0.00 | 0.00 | 34 | 1011.1 |
| 20260505175144 | 67 | 173 | 3.0 | 9.0 | 0.00 | 0.00 | 0.00 | 34 | 1011.0 |
| 20260505174644 | 66 | 340 | 4.0 | 9.0 | 0.00 | 0.00 | 0.00 | 34 | 1011.0 |
| 20260505174144 | 67 | 9 | 5.0 | 9.0 | 0.00 | 0.00 | 0.00 | 34 | 1011.0 |
| 20260505173644 | 67 | 8 | 5.0 | 9.0 | 0.00 | 0.00 | 0.00 | 33 | 1010.9 |
| 20260505173143 | 66 | 342 | 5.0 | 9.0 | 0.00 | 0.00 | 0.00 | 35 | 1010.9 |
| 20260505172644 | 66 | 9 | 5.0 | 9.0 | 0.00 | 0.00 | 0.00 | 35 | 1010.9 |
| 20260505172143 | 66 | 358 | 4.0 | 9.0 | 0.00 | 0.00 | 0.00 | 35 | 1010.8 |
| 20260505171644 | 65 | 9 | 3.0 | 9.0 | 0.00 | 0.00 | 0.00 | 36 | 1010.9 |
| 20260505171148 | 65 | 55 | 3.0 | 8.0 | 0.00 | 0.00 | 0.00 | 35 | 1010.9 |
| 20260505171144 | 65 | 26 | 3.0 | 8.0 | 0.00 | 0.00 | 0.00 | 35 | 1011.0 |
| 20260505170144 | 65 | 130 | 3.0 | 7.0 | 0.00 | 0.00 | 0.00 | 35 | 1010.9 |
| 20260505165644 | 65 | 59 | 2.0 | 5.0 | 0.00 | 0.00 | 0.00 | 36 | 1010.9 |
| 20260505165143 | 64 | 248 | 2.0 | 4.0 | 0.00 | 0.00 | 0.00 | 37 | 1010.9 |
| 20260505164643 | 64 | 124 | 1.0 | 8.0 | 0.00 | 0.00 | 0.00 | 37 | 1010.9 |
| 20260505164144 | 64 | 63 | 2.0 | 8.0 | 0.00 | 0.00 | 0.00 | 38 | 1010.9 |
| 20260505163643 | 63 | 78 | 4.0 | 8.0 | 0.00 | 0.00 | 0.00 | 38 | 1010.9 |
| 20260505163144 | 63 | 86 | 4.0 | 8.0 | 0.00 | 0.00 | 0.00 | 39 | 1010.8 |
| 20260505162643 | 63 | 62 | 4.0 | 8.0 | 0.00 | 0.00 | 0.00 | 39 | 1010.8 |
| 20260505162144 | 63 | 49 | 3.0 | 7.0 | 0.00 | 0.00 | 0.00 | 39 | 1010.7 |
| 20260505161643 | 63 | 60 | 2.0 | 6.0 | 0.00 | 0.00 | 0.00 | 39 | 1010.6 |
| 20260505161144 | 62 | 72 | 3.0 | 6.0 | 0.00 | 0.00 | 0.00 | 40 | 1010.6 |
| 20260505160643 | 62 | 319 | 3.0 | 6.0 | 0.00 | 0.00 | 0.00 | 40 | 1010.5 |
| 20260505160143 | 62 | 44 | 4.0 | 9.0 | 0.00 | 0.00 | 0.00 | 40 | 1010.6 |
| 20260505153146 | 60 | 3 | 3.0 | 5.0 | 0.00 | 0.00 | 0.00 | 43 | 1010.5 |
| 20260505153141 | 60 | 17 | 4.0 | 5.0 | 0.00 | 0.00 | 0.00 | 42 | 1010.5 |
| 20260505152141 | 60 | 349 | 3.0 | 5.0 | 0.00 | 0.00 | 0.00 | 43 | 1010.5 |
| 20260505151645 | 60 | 319 | 3.0 | 5.0 | 0.00 | 0.00 | 0.00 | 44 | 1010.5 |
| 20260505151641 | 60 | 33 | 3.0 | 5.0 | 0.00 | 0.00 | 0.00 | 44 | 1010.5 |
| 20260505150642 | 59 | 353 | 3.0 | 5.0 | 0.00 | 0.00 | 0.00 | 45 | 1010.5 |
| 20260505150140 | 59 | 7 | 3.0 | 6.0 | 0.00 | 0.00 | 0.00 | 45 | 1010.5 |
| 20260505140137 | 53 | 224 | 10.0 | 14.0 | 0.00 | 0.00 | 0.00 | 58 | 1010.2 |